FW7383 Weather Reports


Display with metric or nautical units.
time (UTC)temp
F
wind
direction
speed
MPH
gust
MPH
rain 1hr
in
rain 24hr
in
rain mn
in
humidity
%
barometer
mb
20260901231200 58 120 0.0 1.0 0.00 0.00 0.00 80 1021.9
20260901230619 59 120 0.0 1.0 0.00 0.00 0.00 78 1021.9
20260901225100 59 90 0.0 2.0 0.00 0.00 0.00 78 1021.9
20260901223611 58 138 0.0 1.0 0.00 0.00 0.00 81 1022.0
20260901222021 58 138 0.0 1.0 0.00 0.00 0.00 82 1022.0
20260901220532 59 138 0.0 0.0 0.00 0.00 0.00 80 1021.9
20260901215045 60 138 0.0 0.0 0.00 0.00 0.00 78 1022.0
20260901213515 60 138 0.0 0.0 0.00 0.00 0.00 78 1022.1
20260901212628 60 138 0.0 0.0 0.00 0.00 0.00 78 1022.0
20260901211639 61 138 0.0 0.0 0.00 0.00 0.00 77 1022.1
20260901210606 61 138 0.0 0.0 0.00 0.00 0.00 77 1022.2
20260901205549 61 138 0.0 1.0 0.00 0.00 0.00 76 1022.3
20260901204625 61 160 0.0 2.0 0.00 0.00 0.00 77 1022.3
20260901203614 61 155 0.0 2.0 0.00 0.00 0.00 77 1022.4
20260901202034 62 167 1.0 2.0 0.00 0.00 0.00 76 1022.2
20260901201610 63 157 0.0 2.0 0.00 0.00 0.00 75 1022.2
20260901200547 63 140 0.0 3.0 0.00 0.00 0.00 72 1022.0
20260901195501 63 160 0.0 3.0 0.00 0.00 0.00 72 1021.9
20260901194024 63 157 0.0 1.0 0.00 0.00 0.00 73 1021.9
20260901192145 62 143 0.0 0.0 0.00 0.00 0.00 76 1021.8
20260901185005 64 125 0.0 1.0 0.00 0.00 0.00 72 1021.5
20260901184610 64 125 0.0 1.0 0.00 0.00 0.00 69 1021.6
20260901183145 65 128 0.0 1.0 0.00 0.00 0.00 69 1021.4
20260901181539 66 143 0.0 1.0 0.00 0.00 0.00 68 1021.2
20260901180611 67 165 0.0 1.0 0.00 0.00 0.00 66 1021.3
20260901175513 68 134 0.0 1.0 0.00 0.00 0.00 66 1021.5
20260901174656 67 133 0.0 0.0 0.00 0.00 0.00 64 1021.5
20260901174059 68 133 0.0 1.0 0.00 0.00 0.00 64 1021.4
20260901173007 68 141 0.0 3.0 0.00 0.00 0.00 62 1021.4
20260901171507 69 135 0.0 3.0 0.00 0.00 0.00 61 1021.4
20260901170509 69 117 0.0 2.0 0.00 0.00 0.00 65 1021.5
20260901165030 69 165 0.0 0.0 0.00 0.00 0.00 66 1021.4
20260901164523 68 165 0.0 2.0 0.00 0.00 0.00 65 1021.4
20260901162514 71 188 2.0 5.0 0.00 0.00 0.00 58 1021.3
20260901162100 71 155 2.0 5.0 0.00 0.00 0.00 58 1021.2
20260901161017 70 158 0.0 6.0 0.00 0.00 0.00 60 1021.2
20260901160035 71 170 2.0 5.0 0.00 0.00 0.00 56 1021.3
20260901154645 70 164 0.0 3.0 0.00 0.02 0.00 58 1021.3
20260901153545 72 154 1.0 5.0 0.00 0.02 0.00 58 1021.3
20260901152019 72 205 2.0 4.0 0.00 0.02 0.00 56 1021.2
20260901151009 72 207 2.0 6.0 0.00 0.02 0.00 56 1021.2
20260901150133 72 158 2.0 7.0 0.00 0.02 0.00 54 1021.2
20260901145123 73 156 2.0 7.0 0.00 0.02 0.00 59 1021.2
20260901144051 72 162 3.0 7.0 0.00 0.02 0.00 51 1021.3
20260901141659 72 146 2.0 7.0 0.00 0.02 0.00 57 1021.4
20260901140546 70 150 4.0 9.0 0.00 0.02 0.00 56 1021.4
20260901134501 72 149 2.0 6.0 0.00 0.02 0.00 62 1021.4
20260901134102 71 186 1.0 7.0 0.00 0.02 0.00 59 1021.4
20260901133625 72 129 3.0 7.0 0.00 0.02 0.00 57 1021.4
20260901132524 71 182 3.0 8.0 0.00 0.02 0.00 57 1021.4
20260901131532 71 172 3.0 7.0 0.00 0.02 0.00 60 1021.5
20260901131039 70 192 0.0 10.0 0.00 0.02 0.00 64 1021.5
20260901130155 69 137 1.0 6.0 0.00 0.02 0.00 64 1021.6
20260901125509 68 160 2.0 6.0 0.00 0.03 0.00 65 1021.6
20260901124545 68 154 1.0 4.0 0.00 0.03 0.00 71 1021.6
20260901123507 67 159 1.0 5.0 0.00 0.03 0.00 70 1021.6
20260901123033 67 191 2.0 4.0 0.00 0.03 0.00 68 1021.7
20260901121629 68 211 1.0 8.0 0.00 0.03 0.00 67 1021.7
20260901120201 69 120 2.0 6.0 0.00 0.03 0.00 69 1021.6
20260901115024 68 155 2.0 6.0 0.00 0.04 0.00 69 1021.6
20260901114105 67 187 2.0 6.0 0.00 0.04 0.00 71 1021.7
20260901113044 66 177 0.0 2.0 0.00 0.04 0.00 76 1021.7
20260901112555 66 158 0.0 2.0 0.00 0.04 0.00 76 1021.8
20260901111532 66 169 0.0 3.0 0.00 0.04 0.00 75 1021.8
20260901111136 66 159 0.0 5.0 0.00 0.04 0.00 76 1021.8
20260901110548 66 123 2.0 8.0 0.00 0.04 0.00 74 1021.9
20260901110052 67 169 2.0 8.0 0.00 0.04 0.00 74 1021.9
20260901105701 67 182 1.0 7.0 0.00 0.12 0.00 75 1021.8
20260901104609 66 160 1.0 4.0 0.00 0.12 0.00 79 1021.7
20260901103509 66 209 0.0 2.0 0.00 0.12 0.00 79 1021.8
20260901103022 66 169 0.0 5.0 0.00 0.12 0.00 78 1021.8
20260901102016 66 124 2.0 7.0 0.00 0.12 0.00 79 1021.8
20260901101515 66 139 1.0 7.0 0.00 0.12 0.00 80 1021.8
20260901100634 65 128 3.0 6.0 0.00 0.12 0.00 80 1021.8
20260901095606 65 117 1.0 6.0 0.00 0.14 0.00 84 1021.8
20260901094554 64 84 2.0 6.0 0.00 0.14 0.00 83 1021.8
20260901093556 64 139 2.0 8.0 0.00 0.14 0.00 85 1021.8
20260901092656 64 154 1.0 5.0 0.00 0.14 0.00 85 1021.8
20260901092039 64 157 2.0 5.0 0.00 0.14 0.00 85 1021.8
20260901085539 63 165 2.0 6.0 0.00 0.14 0.00 86 1021.7
20260901084658 63 185 2.0 6.0 0.00 0.14 0.00 88 1021.6
20260901084008 62 138 2.0 6.0 0.00 0.14 0.00 88 1021.6
20260901083051 62 110 0.0 6.0 0.00 0.14 0.00 88 1021.5
20260901082111 62 178 1.0 5.0 0.00 0.14 0.00 88 1021.5
20260901080536 62 153 1.0 6.0 0.00 0.14 0.00 88 1021.2
20260901080007 62 139 2.0 5.0 0.00 0.14 0.00 88 1021.1
20260901075040 61 154 2.0 8.0 0.00 0.16 0.00 89 1021.1
20260901074047 61 186 2.0 6.0 0.00 0.16 0.00 89 1021.1
20260901072640 61 127 1.0 7.0 0.00 0.16 0.00 91 1021.0
20260901071611 60 130 1.0 6.0 0.00 0.16 0.00 91 1020.9
20260901071017 60 129 2.0 6.0 0.00 0.16 0.00 91 1020.8
20260901070525 60 150 2.0 6.0 0.00 0.16 0.00 91 1020.8
20260901065538 60 183 0.0 4.0 0.00 0.16 0.00 91 1020.7
20260901065131 60 160 0.0 4.0 0.00 0.16 0.00 92 1020.8
20260901064549 60 144 0.0 4.0 0.00 0.16 0.00 92 1020.7
20260901063526 60 128 0.0 5.0 0.00 0.16 0.00 92 1020.8
20260901062129 60 138 2.0 5.0 0.00 0.16 0.00 92 1020.6
20260901061535 60 162 0.0 3.0 0.00 0.16 0.00 92 1020.5
20260901060105 60 155 0.0 4.0 0.00 0.16 0.00 92 1020.4
20260901055624 60 139 0.0 4.0 0.00 0.16 0.00 92 1020.4
20260901054547 59 148 0.0 3.0 0.00 0.16 0.00 92 1020.3
20260901054059 59 134 1.0 3.0 0.00 0.16 0.00 92 1020.3
20260901053155 59 167 0.0 3.0 0.00 0.16 0.00 92 1020.2
20260901052129 59 158 1.0 4.0 0.00 0.16 0.00 92 1020.1
20260901050022 59 158 0.0 5.0 0.00 0.16 0.00 92 1020.0
20260901045601 59 155 0.0 6.0 0.00 0.16 0.00 92 1019.9
20260901045017 59 102 0.0 5.0 0.00 0.16 0.00 92 1019.9
20260901044540 59 138 1.0 5.0 0.00 0.16 0.00 92 1019.9
20260901043549 59 131 2.0 7.0 0.00 0.16 0.00 92 1019.9
20260901042602 59 122 0.0 5.0 0.00 0.16 0.00 92 1019.7
20260901042048 59 108 1.0 5.0 0.00 0.16 0.00 92 1019.7
20260901040010 59 92 0.0 6.0 0.00 0.16 0.00 92 1019.5
20260901034528 59 106 0.0 6.0 0.00 0.16 0.00 92 1019.5
20260901033525 59 122 0.0 5.0 0.00 0.16 0.00 92 1019.5
20260901033048 59 104 1.0 5.0 0.00 0.16 0.00 92 1019.4
20260901032559 59 124 1.0 5.0 0.00 0.16 0.00 92 1019.4
20260901032020 59 138 1.0 4.0 0.00 0.16 0.00 92 1019.4
20260901031057 59 114 0.0 6.0 0.00 0.16 0.00 92 1019.3
20260901025636 58 110 0.0 3.0 0.00 0.16 0.00 93 1019.3
20260901024008 58 187 0.0 5.0 0.00 0.16 0.00 93 1019.3
20260901023528 58 153 0.0 2.0 0.00 0.16 0.00 93 1019.3
20260901022554 58 155 0.0 3.0 0.00 0.16 0.00 93 1019.3
20260901021554 58 107 0.0 0.0 0.00 0.16 0.00 92 1019.3
20260901021116 58 94 0.0 0.0 0.00 0.16 0.00 92 1019.3
20260901015145 58 160 0.0 0.0 0.00 0.16 0.00 92 1019.4
20260901014546 58 125 0.0 1.0 0.00 0.16 0.00 92 1019.3
20260901014020 58 156 0.0 1.0 0.00 0.16 0.00 92 1019.4
20260901013653 58 176 0.0 0.0 0.00 0.16 0.00 91 1019.3
20260901013130 59 176 0.0 0.0 0.00 0.16 0.00 91 1019.4
20260901012558 59 176 0.0 0.0 0.00 0.16 0.00 91 1019.3
20260901012137 59 147 0.0 1.0 0.00 0.16 0.00 91 1019.3
20260901011015 59 121 0.0 3.0 0.00 0.16 0.00 91 1019.3
20260901010052 59 138 0.0 5.0 0.00 0.16 0.00 91 1019.3
20260901004534 59 162 0.0 2.0 0.00 0.16 0.00 91 1019.3
20260901003528 59 171 0.0 2.0 0.00 0.16 0.00 91 1019.3
20260901003136 59 168 0.0 2.0 0.00 0.16 0.00 91 1019.2
20260901002538 59 157 0.0 1.0 0.00 0.16 0.00 91 1019.2
20260901002042 59 159 0.0 4.0 0.00 0.16 0.00 91 1019.2
20260901001607 59 146 0.0 4.0 0.00 0.16 0.00 91 1019.2
20260901001151 59 103 0.0 3.0 0.00 0.16 0.00 91 1019.2
20260901000123 59 156 1.0 4.0 0.00 0.16 0.00 91 1019.1
20260831235140 59 146 1.0 6.0 0.00 0.18 0.00 90 1019.2
20260831234634 59 131 0.0 6.0 0.00 0.18 0.00 90 1019.1
20260831234104 59 116 0.0 4.0 0.00 0.18 0.00 90 1019.1
20260831233530 59 66 0.0 5.0 0.00 0.18 0.00 90 1019.1
20260831233058 60 151 0.0 3.0 0.00 0.18 0.00 90 1019.0
20260831232521 60 130 0.0 4.0 0.00 0.18 0.00 90 1019.1
20260831232031 60 174 0.0 4.0 0.00 0.18 0.00 90 1019.1
20260831231601 60 136 0.0 4.0 0.00 0.18 0.00 90 1019.1